This is the latest recevied weather packets stored in our database for station/object GCEMA. If no packets are shown the sender has not sent any weather packets the latest 1 day(s).
| Time | Temp. | Humidity | Pressure | Rain* | Wind** | Luminosity | Snow |
|---|---|---|---|---|---|---|---|
| 1778053239 | 10° C | - | 1007.4 hPa | 0 mm | 0 m/s | - | - |
| 1778052518 | 11.67° C | - | 1007.2 hPa | 0 mm | 0 m/s | - | - |
| 1778052157 | 10.56° C | - | 1007.2 hPa | 0 mm | 0 m/s | - | - |
| 1778051796 | 11.67° C | - | 1007 hPa | 0 mm | 0 m/s | - | - |
| 1778051617 | 11.67° C | - | 1007.3 hPa | 0 mm | 0 m/s | - | - |
| 1778051258 | 11.11° C | - | 1007.9 hPa | 0 mm | 0 m/s | - | - |
| 1778051078 | 11.67° C | - | 1007.7 hPa | 0 mm | 0 m/s | - | - |
| 1778050895 | 11.67° C | - | 1007.5 hPa | 0 mm | 0 m/s | - | - |
| 1778050536 | 11.11° C | - | 1007.5 hPa | 0 mm | 0 m/s | - | - |
| 1778050177 | 11.67° C | - | 1007.5 hPa | 0 mm | 0 m/s | - | - |
| 1778049995 | 12.22° C | - | 1007.4 hPa | 0 mm | 0 m/s | - | - |
| 1778049815 | 11.67° C | - | 1007.3 hPa | 0 mm | 0 m/s | - | - |
| 1778049637 | 11.11° C | - | 1007 hPa | 0 mm | 0 m/s | - | - |
| 1778049277 | 11.67° C | - | 1007 hPa | 0 mm | 0 m/s | - | - |
| 1778048916 | 11.11° C | - | 1007 hPa | 0 mm | 0 m/s | - | - |
| 1778048193 | 10.56° C | - | 1007.4 hPa | 0 mm | 0 m/s | - | - |
| 1778047834 | 11.11° C | - | 1007.2 hPa | 0 mm | 0 m/s | - | - |
| 1778047477 | 11.11° C | - | 1007.1 hPa | 0 mm | 0 m/s | - | - |
| 1778047294 | 11.11° C | - | 1007 hPa | 0 mm | 0 m/s | - | - |
| 1778046934 | 9.44° C | - | 1007.2 hPa | 0 mm | 0 m/s | - | - |
| 1778046754 | 10.56° C | - | 1007.2 hPa | 0 mm | 0 m/s | - | - |
| 1778046575 | 9.44° C | - | 1007.1 hPa | 0 mm | 0 m/s | - | - |
| 1778046214 | 10.56° C | - | 1007 hPa | 0 mm | 0 m/s | - | - |
| 1778045853 | 10° C | - | 1007 hPa | 0 mm | 0 m/s | - | - |
| 1778045673 | 11.11° C | - | 1007 hPa | 0 mm | 0 m/s | - | - |
* Rain latest hour (hover to see other rain measurements)
** Current wind speed in m/s (hover to see current wind gust speed)